Jordan, MT

7:56 AM MDT on April 30, 2017 (GMT -0600)
Jordan

Weather History for KJDN - January, 2013

Change the Weather History Date:

Saturday, January 19, 2013

  Actual Average Record
Temperature  
Mean Temperature 27 °F 17 °F  
Max Temperature 33 °F 29 °F 58 °F (1944)
Min Temperature 20 °F 6 °F -38 °F (1936)
Degree Days  
Heating Degree Days 38 48  
Month to date heating degree days 843 919  
Since 1 July heating degree days 3942 4369  
Cooling Degree Days 0 0  
Month to date cooling degree days 0 0  
Year to date cooling degree days 0 0  
Moisture  
Dew Point 19 °F    
Average Humidity 80    
Maximum Humidity 91    
Minimum Humidity 68    
Precipitation  
Precipitation 0.00 in 0.01 in 0.28 in (1920)
Month to date precipitation 0.23 0.16  
Year to date precipitation 0.23 0.16  
Snow  
Snow 0.00 in - - ()
Month to date snowfall 0.0  
Since 1 July snowfall 0.0  
Snow Depth 0.00 in    
Sea Level Pressure  
Sea Level Pressure 30.26 in    
Wind  
Wind Speed 8 mph (North)    
Max Wind Speed 22 mph    
Max Gust Speed 29 mph    
T = Trace of Precipitation, MM = Missing Value Source: NWS Daily Summary

Daily Weather History Graph

Daily Weather History Graph

Search for Another Location

Airport or City:

Trip Planner

Search our weather history database for the weather conditions in past years. The results will help you decide how hot, cold, wet, or windy it might be!

Date:

Astronomy

Jan. 19, 2013 Rise Set
Actual Time 7:47 AM MST 4:50 PM MST
Civil Twilight 7:12 AM MST 5:24 PM MST
Nautical Twilight 6:35 AM MST 6:02 PM MST
Astronomical Twilight 5:58 AM MST 6:38 PM MST
Moon 11:22 AM MST (1/19) 1:18 AM MST (1/19)
Length of Visible Light 10h 11m
Length of Day
9h 03m
First Quarter, 58% of the Moon is Illuminated
Jan 19
First Quarter
Jan 26
Full
Feb 3
Last Quarter
Feb 10
New
Feb 17
First Quarter

Hourly Weather History & Observations

Time (MST) Temp. Windchill Dew Point Humidity Pressure Visibility Wind Dir Wind Speed Gust Speed Precip Events Conditions
12:48 AM 28.0 °F 20.0 °F 23.0 °F 81% 29.99 in - WNW 8.1 mph - N/A   Unknown
1:48 AM 30.0 °F 22.4 °F 21.9 °F 72% 30.01 in - West 8.1 mph - N/A   Unknown
2:48 AM 30.0 °F 23.2 °F 21.9 °F 72% 30.06 in - WNW 6.9 mph - N/A   Unknown
3:48 AM 28.9 °F 21.1 °F 23.0 °F 78% 30.09 in - WNW 8.1 mph - N/A   Unknown
4:48 AM 28.0 °F 19.3 °F 23.0 °F 81% 30.12 in - WNW 9.2 mph - N/A   Unknown
5:48 AM 26.1 °F 16.8 °F 21.0 °F 81% 30.18 in - West 9.2 mph - N/A   Unknown
6:48 AM 32.0 °F 22.1 °F 25.0 °F 75% 30.20 in - NNW 13.8 mph - N/A   Unknown
7:48 AM 30.0 °F 16.9 °F 21.9 °F 72% 30.23 in - North 21.9 mph 28.8 mph N/A   Unknown
8:48 AM 28.0 °F 17.0 °F 19.0 °F 69% 30.31 in - NNW 13.8 mph - N/A   Unknown
9:48 AM 27.0 °F 15.2 °F 19.0 °F 72% 30.35 in - NNW 15.0 mph - N/A   Unknown
10:48 AM 26.1 °F 14.5 °F 18.0 °F 71% 30.40 in - NNW 13.8 mph - N/A   Unknown
11:48 AM 26.1 °F 17.6 °F 17.1 °F 69% 30.40 in - North 8.1 mph - N/A   Unknown
12:48 PM 25.0 °F 17.1 °F 17.1 °F 72% 30.39 in - NNE 6.9 mph - N/A   Unknown
1:48 PM 25.0 °F 17.1 °F 16.0 °F 69% 30.38 in - North 6.9 mph - N/A   Unknown
2:48 PM 25.0 °F - 16.0 °F 69% 30.37 in - Calm Calm - N/A   Unknown
3:48 PM 24.1 °F 19.7 °F 16.0 °F 71% 30.35 in - East 3.5 mph - N/A   Unknown
4:48 PM 23.0 °F 15.8 °F 16.0 °F 74% 30.34 in - East 5.8 mph - N/A   Unknown
5:48 PM 21.9 °F 13.4 °F 16.0 °F 78% 30.33 in - ESE 6.9 mph - N/A   Unknown
6:48 PM 19.9 °F 12.1 °F 16.0 °F 85% 30.31 in - East 5.8 mph - N/A   Unknown
7:48 PM 19.9 °F 12.1 °F 17.1 °F 89% 30.30 in - ESE 5.8 mph - N/A   Unknown
8:48 PM 19.9 °F 12.1 °F 17.1 °F 89% 30.28 in - East 5.8 mph - N/A   Unknown
9:48 PM 19.9 °F 12.1 °F 17.1 °F 89% 30.27 in - East 5.8 mph - N/A   Unknown
10:48 PM 19.9 °F 12.1 °F 16.0 °F 85% 30.26 in - ENE 5.8 mph - N/A   Unknown
11:48 PM 19.9 °F 12.1 °F 16.0 °F 85% 30.27 in - NE 5.8 mph - N/A   Unknown